Terug naar catalogus

STARLINK-32900

ActiefCommunicatieVLEO
NORAD 63093·PAYLOAD·🇺🇸 United States

Gelanceerd Feb 23, 2025 vanaf Vandenberg Space Force Base

Loading…

Volgende Passages (komende 24 uur)

TLE

VersSource: CelesTrak SupGP

Epoch: Sep 14, 2026, 21:19 UTC

1 63093C 25037S   26257.88868056  .00046059  00000+0  16022-2 0  2572
2 63093  70.0006 235.9208 0003156 266.2229 313.2856 15.29557667    11

Volg STARLINK-32900 in realtime met AllMySat

Download on the App Store